Powrót do katalogu

SL-4 R/B

AktywnyVLEO
NORAD 39679·ROCKET BODY·🇷🇺 Russia

Wystrzelony Apr 16, 2014 z Baikonur Cosmodrome

Loading…

Następne Przeloty (najbliższe 24 godziny)

TLE

ŚwieżeSource: Space-Track

Epoka: Sep 14, 2026, 01:31 UTC

1 39679U 14021B   26257.06342964  .00014168  00000-0  27499-3 0  9992
2 39679  51.6042 134.8109 0087712  72.6777 288.3781 15.43810020685337

Śledź SL-4 R/B w czasie rzeczywistym z AllMySat

Download on the App Store